[[{"header":{"parameterUnit":"m.s-1","parameterCategory":2,"la1":30.2991,"la2":30.254,"lo1":-89.0895,"lo2":-89.0444,"dy":0.0017,"dx":0.0017,"nx":28,"ny":28,"refTime":"2025-08-29T03:00:00:Z","depth":"0","parameterNumber":2,"parameterNumberName":"U-component_of_CURRENTS"},"data":[0,0,0,0,0,0,0,0,0,0,0,0,0,0,0,0,0,0,0,0,0,0,0,0,0,0,0,0,0,0,0,0,0,0,0,0,0,0,0,0,0,0,0,0,0,0,0,0,0,0,0,0,0,0,0,0,0,0,-0.2048,-0.2048,0,-0.2031,-0.203,-0.203,-0.1968,-0.1967,-0.1966,-0.1965,-0.1902,-0.1901,-0.19,0,0,0,0,0,0,0,0,0,0,0,0,0,-0.1995,-0.1996,-0.2048,-0.2048,-0.2048,-0.2031,-0.203,-0.203,-0.1968,-0.1967,-0.1966,-0.1964,-0.1902,-0.1901,-0.19,0,0,0,0,0,0,0,0,0,0,0,0,0,-0.1997,-0.1996,-0.2048,-0.2019,-0.2017,-0.2031,-0.203,-0.2029,-0.1968,-0.1967,-0.1965,-0.1964,-0.1903,-0.1901,-0.19,-0.1921,0,0,-0.1896,-0.1896,0,0,0,0,0,0,0,0,-0.1997,-0.1998,-0.2023,-0.2021,-0.2019,-0.2005,-0.1989,-0.1993,-0.1968,-0.1981,-0.1965,-0.1963,-0.1937,-0.1932,-0.1925,-0.1918,-0.1915,-0.1896,-0.1896,-0.1895,-0.1895,0,0,0,0,0,0,0,-0.1997,-0.1999,-0.2036,-0.2024,-0.2021,-0.1997,-0.1995,-0.1989,-0.1962,-0.198,-0.1977,-0.1984,-0.1934,-0.1927,-0.1924,-0.1914,-0.1896,-0.1895,-0.1895,-0.1894,-0.1923,-0.1925,0,0,0,0,0,0,-0.2013,-0.1999,-0.2036,-0.2036,-0.201,-0.2,-0.1998,-0.2006,-0.1963,-0.1957,-0.1985,-0.1981,-0.193,-0.1925,-0.1921,-0.1947,-0.1895,-0.1894,-0.1893,-0.1922,-0.1924,-0.1925,0,0,0,0,0,0,-0.2012,-0.2017,-0.2037,-0.2021,-0.2022,-0.2003,-0.2012,-0.2007,-0.2001,-0.1968,-0.196,-0.1986,-0.1928,-0.1923,-0.1925,-0.1944,-0.1893,-0.1892,-0.192,-0.1922,-0.1924,-0.1997,0,0,0,0,0,0,-0.2011,-0.2017,-0.2027,-0.2022,-0.2024,-0.2061,-0.2014,-0.2008,-0.201,-0.2005,-0.1967,-0.1959,-0.1927,-0.1927,-0.1924,-0.1941,-0.1891,-0.1918,-0.1921,-0.1924,-0.1992,-0.2001,-0.2009,0,0,0,0,0,-0.2009,-0.2036,-0.2028,-0.2032,-0.204,-0.2063,-0.2062,-0.2039,-0.2012,-0.2025,-0.1995,-0.196,-0.1942,-0.1928,-0.1923,-0.1941,-0.1917,-0.192,-0.1923,-0.1989,-0.1999,-0.2008,0,0,0,0,0,0,-0.2022,-0.2033,-0.2023,-0.2053,-0.2064,-0.2055,-0.2065,-0.205,-0.2036,-0.2026,-0.1982,-0.1974,-0.1979,-0.1959,-0.1944,-0.1959,-0.1924,-0.1926,-0.1975,-0.1984,-0.1992,-0.2001,-0.189,0,0,0,0,0,-0.2032,-0.205,-0.206,-0.2084,-0.2092,-0.2079,-0.2084,-0.2073,-0.2064,-0.2055,-0.2029,-0.2005,-0.1992,-0.1987,-0.1972,-0.1988,-0.1956,-0.1997,-0.2005,-0.2012,-0.2017,-0.2012,-0.202,-0.1936,-0.1936,-0.1936,0,0,-0.2044,-0.2053,-0.2063,-0.2087,-0.2087,-0.2116,-0.2077,-0.2097,-0.2113,-0.2053,-0.2061,-0.2032,-0.2002,-0.2011,-0.2013,-0.1996,-0.2013,-0.2016,-0.2022,-0.2023,-0.2016,-0.2024,-0.2031,-0.1939,-0.1938,-0.1938,0,0,-0.2083,-0.2086,-0.2115,-0.2133,-0.2152,-0.2147,-0.2159,-0.2159,-0.2151,-0.2163,-0.2119,-0.2108,-0.2091,-0.2074,-0.2062,-0.2112,-0.2055,-0.2106,-0.2155,-0.215,-0.2157,-0.2162,-0.2105,-0.2105,-0.2113,-0.2113,-0.2113,0,-0.2096,-0.2134,-0.2129,-0.2168,-0.2185,-0.2167,-0.2205,-0.2206,-0.2205,-0.2201,-0.2177,-0.2147,-0.2122,-0.2128,-0.214,-0.213,-0.2099,-0.2118,-0.216,-0.2165,-0.2169,-0.211,-0.2109,-0.2117,-0.2116,-0.2116,-0.2115,0,-0.2157,-0.2191,-0.2214,-0.2249,-0.2268,-0.2301,-0.2306,-0.2317,-0.2297,-0.2283,-0.2282,-0.2248,-0.2225,-0.2221,-0.2193,-0.2214,-0.2171,-0.2167,-0.2133,-0.2182,-0.2116,-0.2113,-0.2122,-0.2121,-0.212,-0.2119,0,0,-0.217,-0.2242,-0.2248,-0.2277,-0.2312,-0.2332,-0.2368,-0.2385,-0.2394,-0.2381,-0.2389,-0.2366,-0.2328,-0.2314,-0.228,-0.228,-0.2272,-0.2241,-0.2239,-0.218,-0.2223,-0.2144,-0.2132,-0.2278,-0.2279,-0.228,-0.2154,0,-0.2215,-0.23,-0.2319,-0.2386,-0.2427,-0.2428,-0.2461,-0.247,-0.2459,-0.2462,-0.2426,-0.2413,-0.2371,-0.2354,-0.2351,-0.2291,-0.2274,-0.2304,-0.2189,-0.2184,-0.2105,-0.2131,-0.2042,-0.1919,-0.2151,-0.215,-0.215,0,-0.2258,-0.2311,-0.2389,-0.2451,-0.2466,-0.2496,-0.2524,-0.2551,-0.2552,-0.2541,-0.2524,-0.2484,-0.2462,-0.243,-0.2353,-0.2372,-0.2306,-0.226,-0.2254,-0.2157,-0.2102,-0.1914,-0.1905,-0.1891,-0.2146,-0.2146,-0.2146,0,-0.2255,-0.2349,-0.2407,-0.2434,-0.2505,-0.2525,-0.2549,-0.2564,-0.2562,-0.2581,-0.2553,-0.2544,-0.2492,-0.2454,-0.233,-0.2349,-0.2232,-0.2246,-0.2107,-0.2098,-0.1987,-0.1967,-0.1948,-0.2205,-0.2205,-0.2206,-0.2206,0,-0.2288,-0.2328,-0.241,-0.2443,-0.2485,-0.2536,-0.2561,-0.2582,-0.2594,-0.2545,-0.2576,-0.2511,-0.2496,-0.241,-0.2344,-0.2189,-0.2231,-0.211,-0.2072,-0.2005,-0.199,-0.1944,-0.1962,-0.2201,-0.2202,-0.2203,-0.2204,0,-0.2254,-0.2327,-0.238,-0.2463,-0.2482,-0.25,-0.2534,-0.2517,-0.2566,-0.2501,-0.2494,-0.2467,-0.2362,-0.2315,-0.2222,-0.2158,-0.2013,-0.1995,-0.189,-0.1844,-0.1736,-0.1761,-0.1681,-0.1634,-0.1847,-0.1845,-0.1843,0,-0.2234,-0.2268,-0.2352,-0.234,-0.2366,-0.2406,-0.2388,-0.2474,-0.2427,-0.2419,-0.2335,-0.2288,-0.2174,-0.2038,-0.1964,-0.1855,-0.1867,-0.1705,-0.175,-0.1715,-0.1716,-0.1743,-0.1713,-0.161,-0.1606,-0.1603,-0.16,0,-0.2155,-0.2186,-0.2208,-0.2207,-0.2197,-0.22,-0.2185,-0.2175,-0.2207,-0.2184,-0.2081,-0.2032,-0.1921,-0.1791,-0.1701,-0.1627,-0.1676,-0.1636,-0.1642,-0.1565,-0.1552,-0.1491,-0.1679,-0.1572,-0.1575,-0.1577,-0.1578,-0.1579,-0.2033,-0.2018,-0.2028,-0.2005,-0.199,-0.1931,-0.1888,-0.1874,-0.1838,-0.1754,-0.1799,-0.1705,-0.1657,-0.1536,-0.1466,-0.1367,-0.1441,-0.1336,-0.1372,-0.1404,-0.1366,-0.1471,-0.131,-0.1311,-0.1312,-0.1313,-0.1314,0,-0.1847,-0.1837,-0.1801,-0.1762,-0.1662,-0.1734,-0.1671,-0.1603,-0.1509,-0.1504,-0.1447,-0.1399,-0.1294,-0.128,-0.1197,-0.1131,-0.1125,-0.1112,-0.1149,-0.1134,-0.1244,-0.1243,-0.101,-0.101,-0.101,-0.101,-0.101,-0.101,-0.174,-0.1649,-0.164,-0.1437,-0.1395,-0.1251,-0.1201,-0.1145,-0.1129,-0.1059,-0.1058,-0.1091,-0.1112,-0.1174,-0.1086,-0.1029,-0.1027,-0.0975,-0.1019,-0.1127,-0.1152,-0.1176,-0.1181,-0.0939,-0.0939,-0.0863,-0.0863,-0.0863]},{"header":{"parameterUnit":"m.s-1","parameterCategory":2,"la1":30.2991,"la2":30.254,"lo1":-89.0895,"lo2":-89.0444,"dy":0.0017,"dx":0.0017,"nx":28,"ny":28,"refTime":"2025-08-29T03:00:00:Z","depth":"0","parameterNumber":3,"parameterNumberName":"V-component_of_CURRENTS"},"data":[0,0,0,0,0,0,0,0,0,0,0,0,0,0,0,0,0,0,0,0,0,0,0,0,0,0,0,0,0,0,0,0,0,0,0,0,0,0,0,0,0,0,0,0,0,0,0,0,0,0,0,0,0,0,0,0,0,0,0.0177,0.0177,0,0.0187,0.0187,0.0187,0.0183,0.0183,0.0183,0.0183,0.0199,0.02,0.02,0,0,0,0,0,0,0,0,0,0,0,0,0,0.0193,0.0193,0.0177,0.0177,0.0178,0.0187,0.0187,0.0187,0.0183,0.0183,0.0183,0.0183,0.0199,0.02,0.02,0,0,0,0,0,0,0,0,0,0,0,0,0,0.0192,0.0193,0.0177,0.0177,0.0178,0.0187,0.0187,0.0187,0.0184,0.0183,0.0183,0.0183,0.0199,0.02,0.02,0.021,0,0,0.0203,0.0203,0,0,0,0,0,0,0,0,0.0192,0.0191,0.0177,0.0177,0.0178,0.0185,0.0199,0.0196,0.0184,0.018,0.0183,0.0183,0.0196,0.0197,0.0198,0.0211,0.0212,0.0203,0.0204,0.0204,0.0204,0,0,0,0,0,0,0,0.0192,0.0191,0.018,0.0177,0.0178,0.0191,0.019,0.0198,0.0189,0.0181,0.0181,0.0183,0.0196,0.0197,0.0198,0.0212,0.0203,0.0204,0.0204,0.0205,0.0269,0.027,0,0,0,0,0,0,0.0191,0.0191,0.018,0.0181,0.0186,0.019,0.0189,0.0182,0.0188,0.0189,0.0183,0.0183,0.0196,0.0197,0.0199,0.0216,0.0204,0.0205,0.0205,0.0268,0.0269,0.027,0,0,0,0,0,0,0.0191,0.0189,0.0179,0.0188,0.0187,0.019,0.0182,0.0182,0.0183,0.0191,0.0191,0.0184,0.0195,0.0198,0.0211,0.0216,0.0205,0.0206,0.0266,0.0268,0.027,0.0247,0,0,0,0,0,0,0.0191,0.0189,0.0184,0.0187,0.0187,0.0182,0.0182,0.0183,0.0186,0.0185,0.0192,0.0193,0.0195,0.021,0.0212,0.0217,0.0207,0.0265,0.0267,0.0269,0.0246,0.0247,0.0249,0,0,0,0,0,0.0192,0.0179,0.0184,0.0183,0.0179,0.0182,0.0183,0.0184,0.0186,0.0185,0.0195,0.0193,0.0226,0.0211,0.0213,0.0219,0.0264,0.0266,0.0269,0.0245,0.0247,0.0249,0,0,0,0,0,0,0.0178,0.0178,0.0183,0.017,0.0177,0.0181,0.0178,0.0185,0.0192,0.019,0.02,0.0202,0.0217,0.0228,0.0212,0.0249,0.0248,0.0251,0.0229,0.0231,0.0232,0.0217,0.0207,0,0,0,0,0,0.0176,0.0168,0.0175,0.0165,0.0167,0.0175,0.0177,0.018,0.0187,0.0189,0.0198,0.0214,0.0231,0.0238,0.0251,0.0267,0.0287,0.0278,0.0279,0.028,0.0273,0.0325,0.033,0.0279,0.0279,0.0279,0,0,0.0167,0.0167,0.0162,0.0163,0.0166,0.0158,0.0175,0.0174,0.0172,0.0191,0.0192,0.0215,0.0237,0.0253,0.0262,0.0261,0.0306,0.0284,0.0284,0.0275,0.0328,0.0333,0.0337,0.0281,0.0281,0.028,0,0,0.0141,0.0147,0.013,0.0133,0.0138,0.0146,0.0147,0.0156,0.0166,0.0175,0.0194,0.0223,0.0239,0.0262,0.0274,0.0296,0.031,0.0306,0.0297,0.0348,0.0352,0.0355,0.038,0.0387,0.0307,0.0307,0.0307,0,0.013,0.0105,0.0127,0.0111,0.0105,0.0138,0.0117,0.0136,0.0151,0.0162,0.0171,0.0222,0.0243,0.0273,0.0282,0.0297,0.032,0.0282,0.0347,0.0352,0.0356,0.0381,0.0388,0.0307,0.0307,0.0307,0.0307,0,0.0088,0.007,0.0059,0.0049,0.0055,0.004,0.0069,0.0083,0.0104,0.0126,0.0164,0.0206,0.0233,0.0258,0.0271,0.0317,0.0321,0.034,0.0335,0.0359,0.0384,0.0392,0.0305,0.0306,0.0306,0.0306,0,0,0.0044,0.003,0.0023,0.0003,0.0015,0.0009,0.0024,0.0041,0.0053,0.0095,0.0113,0.0168,0.0202,0.0221,0.026,0.0313,0.0366,0.0336,0.0339,0.0346,0.0462,0.0421,0.0426,0.0396,0.0398,0.0399,0.0464,0,-0.0004,-0.006,-0.0041,-0.0085,-0.0115,-0.0072,-0.0062,-0.0031,0.0013,0.0047,0.0117,0.0153,0.0186,0.0209,0.0264,0.0345,0.0386,0.0345,0.045,0.0453,0.0403,0.0434,0.0475,0.0532,0.0471,0.0473,0.0474,0,-0.0064,-0.0094,-0.0151,-0.0167,-0.0172,-0.0177,-0.0154,-0.0138,-0.0063,-0.0024,0.0036,0.0096,0.0175,0.0206,0.0338,0.031,0.0374,0.0439,0.0444,0.0417,0.0427,0.0503,0.0549,0.067,0.0486,0.0485,0.0484,0,-0.0136,-0.0175,-0.0226,-0.0236,-0.0236,-0.0239,-0.0228,-0.0166,-0.0142,-0.0061,-0.0028,0.0069,0.0125,0.0227,0.0337,0.035,0.0476,0.0513,0.0533,0.053,0.059,0.0589,0.0752,0.0598,0.0598,0.0598,0.0598,0,-0.0213,-0.0254,-0.0266,-0.0298,-0.0341,-0.0307,-0.0314,-0.0279,-0.021,-0.0185,-0.0073,-0.0033,0.0139,0.0227,0.0325,0.0434,0.0461,0.053,0.0549,0.0581,0.0579,0.0705,0.0746,0.0601,0.06,0.06,0.0599,0,-0.0292,-0.03,-0.0365,-0.0381,-0.0382,-0.0415,-0.0385,-0.0376,-0.0298,-0.0259,-0.0233,-0.0093,0.0023,0.0165,0.0336,0.0414,0.0591,0.055,0.0555,0.0573,0.0709,0.0745,0.0876,0.0936,0.061,0.0609,0.0609,0,-0.0339,-0.0383,-0.0437,-0.0466,-0.0476,-0.0498,-0.0501,-0.0438,-0.0414,-0.0309,-0.0297,-0.0166,-0.0082,0.0136,0.0311,0.0472,0.0568,0.0592,0.0628,0.0719,0.0776,0.0797,0.0841,0.0707,0.0708,0.0708,0.0708,0,-0.0426,-0.0446,-0.0495,-0.0557,-0.0583,-0.0608,-0.0603,-0.0596,-0.0513,-0.0462,-0.0387,-0.0307,-0.0086,0.0132,0.0337,0.044,0.0679,0.06,0.0729,0.0883,0.0888,0.0954,0.0639,0.0711,0.0711,0.071,0.071,0.071,-0.048,-0.0539,-0.059,-0.0642,-0.0674,-0.0696,-0.0703,-0.0677,-0.0646,-0.0535,-0.0469,-0.0289,0.0028,0.0339,0.0437,0.0716,0.0695,0.0839,0.088,0.0895,0.0943,0.0596,0.066,0.0659,0.0659,0.0658,0.0658,0,-0.0538,-0.0591,-0.0657,-0.0712,-0.0743,-0.0742,-0.0745,-0.0718,-0.0684,-0.0558,-0.0456,-0.0056,0.0238,0.0529,0.0888,0.1025,0.1076,0.1096,0.1191,0.1228,0.0974,0.0968,0.1061,0.1061,0.1061,0.1061,0.1061,0.1061,-0.0566,-0.0642,-0.0675,-0.0742,-0.077,-0.0786,-0.0784,-0.0741,-0.0641,-0.0411,-0.0154,0.0048,0.0481,0.0996,0.1319,0.1341,0.1483,0.1442,0.1499,0.1384,0.1365,0.1347,0.1356,0.1529,0.153,0.1776,0.1778,0.178]}],[{"header":{"parameterUnit":"m.s-1","parameterCategory":2,"la1":30.2991,"la2":30.254,"lo1":-89.0895,"lo2":-89.0444,"dy":0.0017,"dx":0.0017,"nx":28,"ny":28,"refTime":"2025-08-29T03:00:00:Z","depth":"2","parameterNumber":2,"parameterNumberName":"U-component_of_CURRENTS"},"data":[0,0,0,0,0,0,0,0,0,0,0,0,0,0,0,0,0,0,0,0,0,0,0,0,0,0,0,0,0,0,0,0,0,0,0,0,0,0,0,0,0,0,0,0,0,0,0,0,0,0,0,0,0,0,0,0,0,0,-0.2291,-0.2292,0,-0.2352,-0.2352,-0.2353,-0.2297,-0.2295,-0.2293,-0.2291,-0.2236,-0.2237,-0.2237,0,0,0,0,0,0,0,0,0,0,0,0,0,-0.2152,-0.2154,-0.2291,-0.2292,-0.2293,-0.2352,-0.2352,-0.2353,-0.2297,-0.2295,-0.2292,-0.229,-0.2236,-0.2236,-0.2237,0,0,0,0,0,0,0,0,0,0,0,0,0,-0.2208,-0.2155,-0.229,-0.2276,-0.2275,-0.2352,-0.2352,-0.2353,-0.2297,-0.2295,-0.2292,-0.2289,-0.2236,-0.2236,-0.2237,-0.2295,0,0,-0.2238,-0.2238,0,0,0,0,0,0,0,0,-0.2205,-0.2213,-0.2277,-0.2277,-0.2277,-0.2318,-0.2284,-0.2329,-0.2298,-0.2284,-0.2291,-0.2288,-0.2258,-0.2256,-0.2269,-0.2292,-0.229,-0.2238,-0.2238,-0.2238,-0.2239,0,0,0,0,0,0,0,-0.2201,-0.221,-0.231,-0.2278,-0.2278,-0.2276,-0.228,-0.2292,-0.228,-0.2285,-0.2282,-0.2298,-0.2256,-0.2269,-0.2267,-0.2289,-0.2238,-0.2238,-0.2239,-0.2239,-0.2291,-0.2292,0,0,0,0,0,0,-0.2205,-0.2207,-0.2308,-0.2312,-0.2239,-0.2281,-0.2285,-0.2304,-0.2282,-0.2279,-0.23,-0.2295,-0.227,-0.2267,-0.2265,-0.228,-0.2238,-0.2239,-0.2239,-0.2289,-0.2291,-0.2292,0,0,0,0,0,0,-0.2202,-0.2214,-0.2306,-0.2264,-0.2276,-0.2286,-0.2307,-0.2306,-0.2303,-0.2296,-0.2288,-0.2295,-0.2267,-0.2264,-0.2262,-0.2278,-0.2239,-0.2239,-0.2288,-0.229,-0.2291,-0.2343,0,0,0,0,0,0,-0.2198,-0.2213,-0.2221,-0.2265,-0.2279,-0.2351,-0.2311,-0.231,-0.232,-0.2313,-0.229,-0.2283,-0.2265,-0.2261,-0.2262,-0.2278,-0.224,-0.2287,-0.2289,-0.2291,-0.2339,-0.2346,-0.2351,0,0,0,0,0,-0.2193,-0.2227,-0.2221,-0.2233,-0.2292,-0.2353,-0.236,-0.2354,-0.2322,-0.2335,-0.2308,-0.2283,-0.2275,-0.2263,-0.2263,-0.228,-0.2286,-0.2288,-0.2291,-0.2337,-0.2345,-0.2351,0,0,0,0,0,0,-0.2173,-0.2227,-0.222,-0.2267,-0.2303,-0.2345,-0.2363,-0.2357,-0.235,-0.2332,-0.2302,-0.2296,-0.2301,-0.2289,-0.2276,-0.2302,-0.2276,-0.2278,-0.231,-0.2318,-0.2323,-0.2328,-0.224,0,0,0,0,0,-0.2176,-0.2207,-0.2257,-0.229,-0.2313,-0.2334,-0.2353,-0.2355,-0.2364,-0.2357,-0.234,-0.2322,-0.2321,-0.2313,-0.2314,-0.2334,-0.2295,-0.2344,-0.235,-0.2355,-0.236,-0.2336,-0.234,-0.23,-0.23,-0.23,0,0,-0.2173,-0.221,-0.2223,-0.2287,-0.2311,-0.2363,-0.2337,-0.2378,-0.2403,-0.2355,-0.2366,-0.2347,-0.2331,-0.2347,-0.2348,-0.2332,-0.2338,-0.2358,-0.2363,-0.2364,-0.2339,-0.2343,-0.2346,-0.2302,-0.2302,-0.2302,0,0,-0.2203,-0.2223,-0.2261,-0.2304,-0.2357,-0.2379,-0.239,-0.2429,-0.2424,-0.2446,-0.2412,-0.2399,-0.2402,-0.2393,-0.2388,-0.2432,-0.2373,-0.243,-0.246,-0.2438,-0.2441,-0.2443,-0.236,-0.2355,-0.2429,-0.2429,-0.2429,0,-0.2195,-0.2236,-0.2281,-0.2341,-0.2379,-0.2387,-0.2442,-0.2458,-0.2483,-0.248,-0.2451,-0.2442,-0.2427,-0.2438,-0.2448,-0.2445,-0.24,-0.2433,-0.2444,-0.2446,-0.2447,-0.2362,-0.2355,-0.2432,-0.2432,-0.2431,-0.2431,0,-0.2254,-0.2285,-0.2316,-0.2385,-0.2455,-0.2485,-0.2545,-0.2562,-0.2548,-0.2549,-0.2547,-0.2523,-0.2508,-0.2507,-0.249,-0.2498,-0.2449,-0.2455,-0.2423,-0.2454,-0.2362,-0.2354,-0.2436,-0.2435,-0.2434,-0.2433,0,0,-0.2189,-0.2324,-0.2323,-0.2346,-0.2465,-0.2508,-0.2589,-0.263,-0.2632,-0.2634,-0.2627,-0.2629,-0.259,-0.2583,-0.2556,-0.2538,-0.2495,-0.2501,-0.2499,-0.2412,-0.2394,-0.2307,-0.2288,-0.2501,-0.2501,-0.2501,-0.2312,0,-0.2181,-0.227,-0.2375,-0.2437,-0.2464,-0.2556,-0.2631,-0.2688,-0.2694,-0.2686,-0.2658,-0.2637,-0.2628,-0.2598,-0.2589,-0.2517,-0.2482,-0.2542,-0.2383,-0.2377,-0.2292,-0.228,-0.2159,-0.1977,-0.2303,-0.2302,-0.2301,0,-0.216,-0.2211,-0.2308,-0.2409,-0.2442,-0.2519,-0.2606,-0.2667,-0.2706,-0.2718,-0.2712,-0.2675,-0.2642,-0.2626,-0.2529,-0.2563,-0.2489,-0.2431,-0.2423,-0.2322,-0.2277,-0.2008,-0.195,-0.2287,-0.2288,-0.2289,-0.229,0,-0.2019,-0.2132,-0.2197,-0.2241,-0.2406,-0.2472,-0.2539,-0.2648,-0.2662,-0.2707,-0.2679,-0.2683,-0.2599,-0.257,-0.245,-0.2486,-0.2312,-0.2346,-0.2193,-0.2183,-0.204,-0.2018,-0.2284,-0.2284,-0.2284,-0.2285,-0.2285,0,-0.1943,-0.1965,-0.2121,-0.215,-0.2201,-0.2372,-0.2423,-0.2512,-0.2581,-0.2556,-0.2646,-0.2579,-0.2577,-0.2473,-0.2431,-0.2256,-0.2291,-0.2182,-0.2137,-0.2049,-0.2032,-0.2286,-0.2289,-0.2278,-0.2279,-0.2281,-0.2282,0,-0.1819,-0.1919,-0.1963,-0.211,-0.2147,-0.2189,-0.2317,-0.2326,-0.2435,-0.24,-0.2396,-0.243,-0.2332,-0.2301,-0.2198,-0.2157,-0.206,-0.1991,-0.1857,-0.1803,-0.1948,-0.1956,-0.1814,-0.181,-0.1806,-0.1803,-0.18,0,-0.1788,-0.1794,-0.1901,-0.1911,-0.1987,-0.2048,-0.2086,-0.2232,-0.2233,-0.2271,-0.2211,-0.2147,-0.208,-0.1924,-0.1876,-0.1786,-0.1882,-0.1602,-0.1683,-0.1933,-0.1904,-0.1918,-0.1931,-0.1483,-0.1478,-0.1474,-0.147,0,-0.1692,-0.1731,-0.1774,-0.1773,-0.1811,-0.184,-0.1881,-0.1868,-0.1997,-0.1984,-0.1934,-0.1894,-0.1777,-0.1648,-0.1558,-0.1504,-0.1634,-0.1514,-0.1786,-0.1644,-0.1612,-0.1587,-0.1612,-0.1434,-0.1437,-0.144,-0.1442,-0.1444,-0.1609,-0.16,-0.1629,-0.1625,-0.1643,-0.1632,-0.1604,-0.1639,-0.1634,-0.161,-0.1641,-0.1563,-0.1544,-0.1367,-0.1274,-0.1222,-0.1352,-0.1315,-0.1331,-0.1351,-0.137,-0.1337,-0.1105,-0.1106,-0.1108,-0.1109,-0.111,0,-0.1497,-0.1489,-0.1462,-0.146,-0.1405,-0.1474,-0.1464,-0.1421,-0.1369,-0.137,-0.1334,-0.1189,-0.1104,-0.1099,-0.0966,-0.0937,-0.0969,-0.0898,-0.0955,-0.0991,-0.1023,-0.103,-0.0671,-0.067,-0.0669,-0.0668,0,0,-0.1441,-0.138,-0.1359,-0.1233,-0.1215,-0.1133,-0.1109,-0.1073,-0.1057,-0.0996,-0.0964,-0.104,-0.1062,-0.0869,-0.0823,-0.0723,-0.0851,-0.0684,-0.1037,-0.114,-0.117,-0.1261,-0.1311,0,0,0,0,0]},{"header":{"parameterUnit":"m.s-1","parameterCategory":2,"la1":30.2991,"la2":30.254,"lo1":-89.0895,"lo2":-89.0444,"dy":0.0017,"dx":0.0017,"nx":28,"ny":28,"refTime":"2025-08-29T03:00:00:Z","depth":"2","parameterNumber":3,"parameterNumberName":"V-component_of_CURRENTS"},"data":[0,0,0,0,0,0,0,0,0,0,0,0,0,0,0,0,0,0,0,0,0,0,0,0,0,0,0,0,0,0,0,0,0,0,0,0,0,0,0,0,0,0,0,0,0,0,0,0,0,0,0,0,0,0,0,0,0,0,-0.005,-0.005,0,-0.0012,-0.0012,-0.0012,0.0002,0.0002,0.0001,0.0001,0.0044,0.0045,0.0046,0,0,0,0,0,0,0,0,0,0,0,0,0,-0.0051,-0.0051,-0.005,-0.005,-0.0049,-0.0013,-0.0012,-0.0011,0.0002,0.0001,0.0001,0.0001,0.0043,0.0045,0.0046,0,0,0,0,0,0,0,0,0,0,0,0,0,-0.0036,-0.0051,-0.005,-0.0038,-0.0037,-0.0013,-0.0012,-0.0011,0.0002,0.0001,0.0001,0.0001,0.0043,0.0045,0.0047,0.0063,0,0,0.0052,0.0053,0,0,0,0,0,0,0,0,-0.0037,-0.0036,-0.004,-0.0039,-0.0037,-0.0011,0.0003,0.0014,0.0002,-0.0013,0.0001,0.0001,0.0026,0.0029,0.0037,0.0065,0.0067,0.0053,0.0054,0.0055,0.0055,0,0,0,0,0,0,0,-0.0038,-0.0037,-0.0035,-0.004,-0.0038,-0.0014,-0.0013,0.0006,0.0008,-0.0011,-0.001,-0.0007,0.0027,0.0035,0.0038,0.0068,0.0053,0.0054,0.0055,0.0056,0.0072,0.0071,0,0,0,0,0,0,-0.0046,-0.0038,-0.0036,-0.0034,-0.0038,-0.0015,-0.0013,-0.0019,0.0008,0.0011,-0.0006,-0.0006,0.0032,0.0036,0.004,0.0036,0.0055,0.0056,0.0058,0.0072,0.0071,0.0071,0,0,0,0,0,0,-0.0046,-0.0046,-0.0038,-0.0035,-0.0032,-0.0015,-0.0021,-0.0018,-0.002,0.0011,0.0015,-0.0013,0.0032,0.0037,0.0038,0.0039,0.0057,0.0059,0.0073,0.0072,0.0071,0.0045,0,0,0,0,0,0,-0.0046,-0.0047,-0.0054,-0.0036,-0.0032,-0.0037,-0.0021,-0.0017,-0.0016,-0.0016,0.0008,0.0012,0.0032,0.0035,0.004,0.0042,0.0061,0.0074,0.0073,0.0071,0.0046,0.0043,0.004,0,0,0,0,0,-0.0047,-0.0063,-0.0054,-0.0054,-0.0043,-0.0038,-0.0035,-0.0022,-0.0017,-0.0023,-0.0011,0.0011,0.003,0.0036,0.0042,0.0044,0.0075,0.0073,0.0072,0.0048,0.0043,0.004,0,0,0,0,0,0,-0.0067,-0.0063,-0.0053,-0.0067,-0.0057,-0.0036,-0.004,-0.003,-0.0024,-0.0026,0.0002,0.0007,0.0008,0.0024,0.003,0.0042,0.0056,0.0055,0.0036,0.0032,0.0029,0.0038,0.0062,0,0,0,0,0,-0.0074,-0.0086,-0.0071,-0.0081,-0.008,-0.006,-0.0056,-0.0049,-0.0039,-0.0037,-0.0021,-0.0006,0.0008,0.0017,0.0028,0.0038,0.0081,0.0041,0.0038,0.0035,0.0044,0.0125,0.0131,0.0065,0.0065,0.0065,0,0,-0.0083,-0.0082,-0.0087,-0.0086,-0.0076,-0.0084,-0.0059,-0.0062,-0.0064,-0.0033,-0.0037,-0.002,0.0005,0.0011,0.0014,0.0026,0.0068,0.0033,0.003,0.0042,0.0125,0.0132,0.0138,0.0064,0.0064,0.0064,0,0,-0.0116,-0.0108,-0.0132,-0.0128,-0.0122,-0.0106,-0.0112,-0.0099,-0.009,-0.0092,-0.0067,-0.0048,-0.0039,-0.0007,0.0007,-0.0008,0.0043,-0.0013,-0.0013,0.0064,0.0072,0.0079,0.0114,0.0124,-0.0009,-0.0009,-0.0009,0,-0.0126,-0.0161,-0.0136,-0.0157,-0.0154,-0.0123,-0.0141,-0.0126,-0.0114,-0.0097,-0.0104,-0.0057,-0.0042,-0.0002,-0.0014,-0.0011,0.0027,0.0002,0.0064,0.0071,0.0079,0.0114,0.0126,-0.0011,-0.001,-0.001,-0.001,0,-0.0183,-0.0204,-0.0218,-0.0231,-0.0214,-0.0233,-0.0199,-0.0188,-0.0174,-0.0149,-0.0116,-0.0086,-0.0049,-0.0047,-0.0039,0.002,0.0026,0.0048,0.0081,0.0085,0.012,0.0133,-0.0013,-0.0012,-0.0012,-0.0011,0,0,-0.0225,-0.0258,-0.026,-0.0281,-0.026,-0.0259,-0.0239,-0.0212,-0.0185,-0.0169,-0.0124,-0.0105,-0.0068,-0.0049,-0.0018,0.0042,0.011,0.0062,0.0067,0.0107,0.0259,0.0205,0.0214,0.0152,0.0155,0.0157,0.0252,0,-0.0284,-0.0351,-0.0329,-0.0368,-0.04,-0.034,-0.0316,-0.0271,-0.0221,-0.0168,-0.011,-0.0069,-0.0072,-0.0044,0.0015,0.0092,0.0147,0.008,0.0239,0.0243,0.0206,0.0229,0.0225,0.0306,0.0265,0.0267,0.0269,0,-0.0346,-0.0389,-0.0445,-0.0446,-0.0446,-0.0443,-0.0372,-0.035,-0.0245,-0.0195,-0.0121,-0.0064,0.0015,0.0021,0.0159,0.0118,0.0181,0.0239,0.0245,0.0219,0.0216,0.03,0.0331,0.0291,0.0289,0.0288,0.0286,0,-0.0406,-0.0458,-0.0509,-0.0517,-0.0508,-0.0493,-0.047,-0.0365,-0.0334,-0.0201,-0.0153,-0.0036,0.0016,0.0127,0.0195,0.0204,0.0343,0.0381,0.0391,0.0387,0.0427,0.0422,0.0495,0.0495,0.0495,0.0494,0.0494,0,-0.0478,-0.0518,-0.0551,-0.0584,-0.0607,-0.0561,-0.0535,-0.0468,-0.0372,-0.0324,-0.0184,-0.0126,0.0049,0.0133,0.0217,0.0313,0.0359,0.0399,0.042,0.041,0.0402,0.0428,0.0418,0.0498,0.0497,0.0497,0.0496,0,-0.0522,-0.0554,-0.0618,-0.0641,-0.0642,-0.0652,-0.0612,-0.0579,-0.0479,-0.04,-0.0363,-0.0191,-0.0057,0.0075,0.0258,0.0322,0.0435,0.0451,0.0393,0.0406,0.0431,0.0419,0.0534,0.0534,0.0533,0.0532,0.0532,0,-0.0551,-0.06,-0.0662,-0.0687,-0.0699,-0.0714,-0.0699,-0.0633,-0.059,-0.0459,-0.0422,-0.0275,-0.0153,0.0066,0.0227,0.039,0.0392,0.046,0.0489,0.0432,0.0442,0.0431,0.042,0.0528,0.0528,0.0527,0.0527,0,-0.0603,-0.0626,-0.0675,-0.0736,-0.0754,-0.0772,-0.0759,-0.075,-0.0654,-0.0581,-0.047,-0.0369,-0.0143,0.0059,0.0245,0.0335,0.0443,0.0456,0.0458,0.0492,0.0427,0.0435,0.0426,0.0524,0.0524,0.0524,0.0524,0.0525,-0.062,-0.0666,-0.0727,-0.0769,-0.0796,-0.0805,-0.0806,-0.0774,-0.0726,-0.0592,-0.0517,-0.0325,-0.0145,0.0165,0.0274,0.0402,0.0426,0.0491,0.0493,0.0496,0.0451,0.0387,0.0466,0.0466,0.0466,0.0466,0.0466,0,-0.0636,-0.0691,-0.0746,-0.0797,-0.0818,-0.0824,-0.0815,-0.0789,-0.0729,-0.0592,-0.0469,-0.0242,-0.0023,0.0148,0.0356,0.0463,0.0485,0.0474,0.0498,0.0501,0.0503,0.046,0.0477,0.0477,0.0477,0.0477,0,0,-0.0648,-0.071,-0.0746,-0.0794,-0.0821,-0.0831,-0.0823,-0.0771,-0.0675,-0.054,-0.0386,-0.0195,0.0014,0.016,0.0289,0.0392,0.0416,0.0398,0.0381,0.0396,0.0397,0.0507,0.0441,0,0,0,0,0]}],[{"header":{"parameterUnit":"m.s-1","parameterCategory":2,"la1":30.2991,"la2":30.254,"lo1":-89.0895,"lo2":-89.0444,"dy":0.0017,"dx":0.0017,"nx":28,"ny":28,"refTime":"2025-08-29T03:00:00:Z","depth":"4","parameterNumber":2,"parameterNumberName":"U-component_of_CURRENTS"},"data":[0,0,0,0,0,0,0,0,0,0,0,0,0,0,0,0,0,0,0,0,0,0,0,0,0,0,0,0,0,0,0,0,0,0,0,0,0,0,0,0,0,0,0,0,0,0,0,0,0,0,0,0,0,0,0,0,0,0,-0.0952,-0.0953,0,-0.1015,-0.1016,-0.1016,-0.1043,-0.1043,-0.1043,-0.1043,-0.111,-0.1112,-0.1113,0,0,0,0,0,0,0,0,0,0,0,0,0,-0.0863,-0.0864,-0.0952,-0.0953,-0.0954,-0.1015,-0.1016,-0.1017,-0.1043,-0.1043,-0.1043,-0.1043,-0.1109,-0.1111,-0.1114,0,0,0,0,0,0,0,0,0,0,0,0,0,-0.0911,-0.0865,-0.0952,-0.0975,-0.0977,-0.1015,-0.1016,-0.1017,-0.1043,-0.1043,-0.1043,-0.1043,-0.1108,-0.1111,-0.1114,-0.1134,0,0,-0.1122,-0.1124,0,0,0,0,0,0,0,0,-0.0908,-0.0914,-0.097,-0.0973,-0.0976,-0.1021,-0.1009,-0.1056,-0.1043,-0.1018,-0.1043,-0.1043,-0.1081,-0.1086,-0.1098,-0.1137,-0.114,-0.1123,-0.1124,-0.1126,-0.1126,0,0,0,0,0,0,0,-0.0905,-0.0912,-0.0977,-0.0971,-0.0975,-0.0984,-0.0991,-0.1018,-0.1049,-0.102,-0.1022,-0.103,-0.1082,-0.1095,-0.1099,-0.1141,-0.1123,-0.1125,-0.1127,-0.1128,-0.1239,-0.124,0,0,0,0,0,0,-0.0898,-0.0909,-0.0975,-0.0979,-0.0941,-0.0986,-0.0993,-0.1007,-0.1049,-0.1055,-0.103,-0.1031,-0.109,-0.1096,-0.1102,-0.1165,-0.1126,-0.1128,-0.113,-0.1237,-0.1239,-0.124,0,0,0,0,0,0,-0.0895,-0.0903,-0.0972,-0.0945,-0.0954,-0.0988,-0.1003,-0.1008,-0.1037,-0.1056,-0.1063,-0.1055,-0.109,-0.1098,-0.114,-0.1166,-0.1129,-0.1132,-0.1236,-0.1238,-0.124,-0.1267,0,0,0,0,0,0,-0.0893,-0.0902,-0.0921,-0.0945,-0.0956,-0.1007,-0.1003,-0.1009,-0.1041,-0.1043,-0.108,-0.1084,-0.1091,-0.1136,-0.1143,-0.1169,-0.1134,-0.1234,-0.1237,-0.1239,-0.1264,-0.1269,-0.1274,0,0,0,0,0,-0.0889,-0.091,-0.0921,-0.093,-0.0977,-0.1008,-0.1015,-0.1037,-0.1042,-0.1061,-0.1084,-0.1084,-0.1156,-0.1139,-0.1147,-0.1175,-0.1233,-0.1236,-0.1239,-0.1262,-0.1268,-0.1273,0,0,0,0,0,0,-0.0889,-0.0916,-0.0928,-0.0959,-0.0988,-0.1012,-0.1033,-0.1048,-0.1082,-0.1087,-0.1102,-0.1109,-0.1152,-0.1163,-0.1145,-0.1214,-0.1194,-0.1199,-0.1209,-0.1215,-0.122,-0.1245,-0.1136,0,0,0,0,0,-0.0896,-0.0909,-0.0945,-0.0967,-0.0986,-0.1014,-0.1033,-0.1049,-0.1076,-0.1091,-0.1119,-0.1146,-0.1168,-0.1192,-0.1212,-0.1257,-0.1245,-0.128,-0.1285,-0.1289,-0.1315,-0.1297,-0.1302,-0.125,-0.125,-0.125,0,0,-0.0902,-0.0916,-0.0927,-0.0967,-0.099,-0.1022,-0.1026,-0.1059,-0.1093,-0.1093,-0.1153,-0.1163,-0.1182,-0.1224,-0.1246,-0.1241,-0.1296,-0.1292,-0.1295,-0.132,-0.1301,-0.1305,-0.131,-0.1252,-0.1251,-0.1251,0,0,-0.0907,-0.0936,-0.095,-0.0978,-0.1015,-0.1036,-0.105,-0.1093,-0.1124,-0.118,-0.1178,-0.1222,-0.1262,-0.1288,-0.1302,-0.1354,-0.1314,-0.1342,-0.1396,-0.1378,-0.1381,-0.1385,-0.1364,-0.1365,-0.1352,-0.1352,-0.1352,0,-0.0917,-0.0943,-0.0962,-0.0987,-0.101,-0.1044,-0.1074,-0.1115,-0.1168,-0.1192,-0.1207,-0.1274,-0.1306,-0.1345,-0.137,-0.137,-0.1331,-0.1368,-0.1382,-0.1385,-0.1388,-0.1366,-0.1367,-0.1353,-0.1353,-0.1353,-0.1353,0,-0.0933,-0.0966,-0.0979,-0.1019,-0.1044,-0.1079,-0.1129,-0.1172,-0.1214,-0.1247,-0.1309,-0.1356,-0.1398,-0.1409,-0.1417,-0.1449,-0.1403,-0.1379,-0.1363,-0.1395,-0.1369,-0.137,-0.1356,-0.1355,-0.1355,-0.1354,0,0,-0.0928,-0.0981,-0.099,-0.1017,-0.1067,-0.1092,-0.1148,-0.1206,-0.1238,-0.1316,-0.1352,-0.1443,-0.1464,-0.1485,-0.149,-0.1499,-0.1504,-0.1452,-0.145,-0.1424,-0.1436,-0.1364,-0.1358,-0.1448,-0.1448,-0.1449,-0.1404,0,-0.0943,-0.0988,-0.101,-0.1064,-0.1096,-0.1138,-0.1184,-0.1235,-0.1281,-0.1326,-0.1396,-0.1439,-0.149,-0.1504,-0.1529,-0.1493,-0.1507,-0.1518,-0.1417,-0.1416,-0.1342,-0.1358,-0.1451,-0.1404,-0.1404,-0.1404,-0.1404,0,-0.0953,-0.0983,-0.1032,-0.1088,-0.1107,-0.1146,-0.1203,-0.125,-0.1311,-0.1341,-0.1401,-0.1432,-0.1499,-0.1516,-0.1532,-0.1515,-0.1503,-0.1482,-0.1478,-0.1411,-0.1346,-0.137,-0.1405,-0.1405,-0.1405,-0.1405,-0.1405,0,-0.0931,-0.1,-0.1037,-0.1061,-0.1129,-0.1163,-0.1206,-0.126,-0.1286,-0.1347,-0.1357,-0.1426,-0.1464,-0.1463,-0.1501,-0.1485,-0.1474,-0.144,-0.1374,-0.1368,-0.1432,-0.1429,-0.1456,-0.1456,-0.1456,-0.1456,-0.1457,0,-0.0929,-0.0965,-0.104,-0.1065,-0.1108,-0.1162,-0.1198,-0.1245,-0.1284,-0.1316,-0.1374,-0.1407,-0.1447,-0.1463,-0.147,-0.1436,-0.1465,-0.1396,-0.1356,-0.1443,-0.1442,-0.1431,-0.1428,-0.1455,-0.1455,-0.1455,-0.1456,0,-0.0893,-0.0945,-0.0993,-0.1074,-0.1098,-0.1131,-0.1182,-0.1205,-0.1254,-0.1287,-0.1309,-0.1375,-0.1401,-0.1428,-0.1422,-0.1396,-0.1366,-0.1353,-0.1457,-0.1421,-0.127,-0.127,-0.1235,-0.1232,-0.123,-0.1228,-0.1226,0,-0.0878,-0.0902,-0.0982,-0.1007,-0.1049,-0.1097,-0.1124,-0.118,-0.1205,-0.1284,-0.1303,-0.1345,-0.1393,-0.1315,-0.1355,-0.1323,-0.1329,-0.1288,-0.1287,-0.1285,-0.1249,-0.1253,-0.1256,-0.1222,-0.1222,-0.1221,-0.122,0,-0.0841,-0.0876,-0.0908,-0.0963,-0.1003,-0.1036,-0.1097,-0.1094,-0.118,-0.1219,-0.1259,-0.1265,-0.1281,-0.1278,-0.1263,-0.1256,-0.1288,-0.1263,-0.1267,-0.1266,-0.1269,-0.1237,-0.1243,-0.1212,-0.1213,-0.1214,-0.1215,0,-0.0803,-0.0808,-0.0859,-0.0899,-0.0956,-0.0996,-0.1017,-0.1062,-0.1081,-0.1177,-0.1199,-0.1248,-0.1298,-0.1246,-0.1249,-0.1213,-0.1187,-0.1136,-0.1147,-0.1156,-0.1152,-0.1146,-0.1024,0,0,0,0,0,-0.0759,-0.0758,-0.0795,-0.0835,-0.0902,-0.0934,-0.1015,-0.1042,-0.1115,-0.1117,-0.1151,-0.1176,-0.1161,-0.1182,-0.1125,-0.1202,-0.1189,-0.1129,-0.1136,-0.1167,-0.1176,-0.118,0,0,0,0,0,0,-0.072,-0.0744,-0.0764,-0.0794,-0.0812,-0.0869,-0.0918,-0.0968,-0.0974,-0.1051,-0.1047,-0.1093,-0.109,-0.117,-0.1095,-0.1098,-0.1076,-0.1152,-0.1148,-0.1161,-0.117,-0.1178,-0.1185,0,0,0,0,0]},{"header":{"parameterUnit":"m.s-1","parameterCategory":2,"la1":30.2991,"la2":30.254,"lo1":-89.0895,"lo2":-89.0444,"dy":0.0017,"dx":0.0017,"nx":28,"ny":28,"refTime":"2025-08-29T03:00:00:Z","depth":"4","parameterNumber":3,"parameterNumberName":"V-component_of_CURRENTS"},"data":[0,0,0,0,0,0,0,0,0,0,0,0,0,0,0,0,0,0,0,0,0,0,0,0,0,0,0,0,0,0,0,0,0,0,0,0,0,0,0,0,0,0,0,0,0,0,0,0,0,0,0,0,0,0,0,0,0,0,-0.0198,-0.0198,0,-0.0181,-0.0181,-0.018,-0.0152,-0.0151,-0.0151,-0.015,-0.0113,-0.0112,-0.0112,0,0,0,0,0,0,0,0,0,0,0,0,0,-0.0196,-0.0196,-0.0198,-0.0198,-0.0198,-0.0181,-0.0181,-0.018,-0.0152,-0.0151,-0.0151,-0.015,-0.0113,-0.0112,-0.0112,0,0,0,0,0,0,0,0,0,0,0,0,0,-0.019,-0.0196,-0.0198,-0.0181,-0.0179,-0.0181,-0.0181,-0.018,-0.0152,-0.0151,-0.015,-0.015,-0.0113,-0.0112,-0.0112,-0.0126,0,0,-0.011,-0.0109,0,0,0,0,0,0,0,0,-0.0191,-0.0191,-0.0184,-0.0182,-0.018,-0.0167,-0.0166,-0.0161,-0.0152,-0.0163,-0.015,-0.0149,-0.0129,-0.0127,-0.0127,-0.0124,-0.0122,-0.011,-0.0109,-0.0109,-0.0109,0,0,0,0,0,0,0,-0.0191,-0.0191,-0.0192,-0.0183,-0.0181,-0.017,-0.0168,-0.0165,-0.0152,-0.0162,-0.016,-0.0157,-0.0128,-0.0128,-0.0126,-0.0122,-0.011,-0.0109,-0.0109,-0.0108,-0.0141,-0.0142,0,0,0,0,0,0,-0.0193,-0.0192,-0.0193,-0.0191,-0.0182,-0.0171,-0.0169,-0.0173,-0.0152,-0.0148,-0.0158,-0.0156,-0.013,-0.0127,-0.0125,-0.0155,-0.0109,-0.0108,-0.0108,-0.0139,-0.0141,-0.0142,0,0,0,0,0,0,-0.0194,-0.0194,-0.0193,-0.019,-0.0189,-0.0172,-0.0176,-0.0173,-0.0169,-0.0149,-0.0144,-0.0157,-0.0129,-0.0126,-0.0129,-0.0153,-0.0108,-0.0108,-0.0138,-0.014,-0.0142,-0.0207,0,0,0,0,0,0,-0.0194,-0.0194,-0.0198,-0.019,-0.0189,-0.0202,-0.0177,-0.0173,-0.0169,-0.0166,-0.0147,-0.0143,-0.0128,-0.013,-0.0128,-0.0151,-0.0107,-0.0136,-0.0139,-0.0141,-0.0203,-0.021,-0.0217,0,0,0,0,0,-0.0194,-0.0207,-0.0199,-0.0199,-0.0196,-0.0203,-0.0202,-0.0186,-0.017,-0.0178,-0.0165,-0.0143,-0.0144,-0.0131,-0.0128,-0.0151,-0.0135,-0.0138,-0.0141,-0.02,-0.0209,-0.0217,0,0,0,0,0,0,-0.0205,-0.0205,-0.0196,-0.0207,-0.0206,-0.0197,-0.0201,-0.019,-0.0186,-0.0181,-0.0157,-0.0153,-0.0169,-0.0151,-0.0137,-0.0168,-0.0137,-0.0139,-0.0182,-0.0191,-0.0198,-0.0204,-0.0106,0,0,0,0,0,-0.021,-0.0224,-0.0216,-0.0227,-0.0226,-0.0214,-0.0213,-0.0205,-0.0199,-0.0196,-0.0183,-0.0174,-0.0181,-0.0177,-0.0178,-0.019,-0.0159,-0.0205,-0.0212,-0.0218,-0.0222,-0.022,-0.0227,-0.0151,-0.0151,-0.0151,0,0,-0.0218,-0.022,-0.0226,-0.0231,-0.0227,-0.0241,-0.0212,-0.0217,-0.0231,-0.0193,-0.0207,-0.02,-0.0191,-0.0211,-0.0216,-0.0196,-0.0216,-0.0221,-0.0226,-0.0227,-0.0224,-0.0231,-0.0238,-0.0153,-0.0153,-0.0153,0,0,-0.0244,-0.0241,-0.0259,-0.0265,-0.0265,-0.0261,-0.0264,-0.0258,-0.0255,-0.0269,-0.0252,-0.0257,-0.0257,-0.0259,-0.026,-0.0305,-0.0258,-0.0306,-0.0341,-0.034,-0.0346,-0.0351,-0.0287,-0.0286,-0.0305,-0.0305,-0.0305,0,-0.025,-0.0274,-0.0265,-0.0286,-0.0296,-0.0273,-0.0296,-0.0297,-0.0294,-0.0296,-0.0282,-0.0293,-0.0284,-0.031,-0.033,-0.0322,-0.0292,-0.031,-0.0349,-0.0354,-0.0358,-0.0291,-0.0289,-0.0308,-0.0308,-0.0307,-0.0307,0,-0.0289,-0.0309,-0.0322,-0.0343,-0.0353,-0.0371,-0.037,-0.0375,-0.0366,-0.0362,-0.038,-0.0371,-0.0372,-0.0379,-0.037,-0.04,-0.0357,-0.0362,-0.0326,-0.0369,-0.0296,-0.0292,-0.0313,-0.0312,-0.0311,-0.031,0,0,-0.0301,-0.0342,-0.0347,-0.0369,-0.0386,-0.04,-0.0424,-0.0437,-0.0448,-0.0444,-0.0456,-0.0477,-0.0456,-0.0457,-0.0444,-0.0446,-0.0441,-0.0421,-0.0419,-0.0353,-0.0393,-0.0312,-0.0299,-0.0458,-0.0459,-0.0459,-0.0317,0,-0.0333,-0.0387,-0.0399,-0.0449,-0.0474,-0.0474,-0.05,-0.0508,-0.0505,-0.0509,-0.0496,-0.0506,-0.049,-0.0492,-0.0494,-0.0461,-0.0442,-0.0476,-0.0364,-0.0359,-0.0281,-0.0297,-0.0462,-0.0314,-0.0313,-0.0312,-0.0312,0,-0.0363,-0.0398,-0.0457,-0.0505,-0.0515,-0.0543,-0.0573,-0.0593,-0.059,-0.0583,-0.058,-0.0561,-0.0555,-0.0542,-0.049,-0.0512,-0.046,-0.0426,-0.042,-0.0323,-0.0274,-0.0271,-0.0305,-0.0306,-0.0306,-0.0307,-0.0307,0,-0.0378,-0.0436,-0.0488,-0.0508,-0.0557,-0.0583,-0.0602,-0.0615,-0.0622,-0.0626,-0.0611,-0.0606,-0.0573,-0.0548,-0.045,-0.0485,-0.0363,-0.0399,-0.0264,-0.0254,-0.034,-0.0336,-0.0365,-0.0365,-0.0365,-0.0366,-0.0366,0,-0.0408,-0.0447,-0.0501,-0.0533,-0.0586,-0.061,-0.0651,-0.0663,-0.0663,-0.0651,-0.0646,-0.0608,-0.0579,-0.0494,-0.0444,-0.0307,-0.0346,-0.0262,-0.0225,-0.0364,-0.0365,-0.0334,-0.0332,-0.036,-0.0361,-0.0362,-0.0363,0,-0.0416,-0.0455,-0.0514,-0.0577,-0.0598,-0.0634,-0.067,-0.0685,-0.0684,-0.0661,-0.0658,-0.0593,-0.0484,-0.0404,-0.0314,-0.0263,-0.0173,-0.011,-0.0196,-0.0168,-0.0068,-0.0072,0.0015,0.0018,0.0022,0.0024,0.0026,0,-0.0424,-0.046,-0.0541,-0.0573,-0.0605,-0.0654,-0.0678,-0.0695,-0.0692,-0.0631,-0.0603,-0.0495,-0.0437,-0.0214,-0.0163,-0.0028,-0.0021,0.0036,-0.0098,-0.0062,-0.0035,-0.0044,-0.0052,0.0032,0.0032,0.0033,0.0034,0,-0.0435,-0.0468,-0.0517,-0.0586,-0.0627,-0.0664,-0.069,-0.0679,-0.0666,-0.0657,-0.0528,-0.0427,-0.027,-0.0164,-0.0022,0.0053,-0.0018,0.0068,0.0059,-0.0066,-0.0041,-0.0019,-0.003,0.0045,0.0043,0.0042,0.0042,0,-0.0429,-0.0464,-0.053,-0.0588,-0.0639,-0.0658,-0.0673,-0.0639,-0.0627,-0.055,-0.0491,-0.035,-0.0275,-0.0113,0.0005,0.0103,0.0076,0.0057,0.0048,0.0037,-0.0018,0.0014,0.0154,0,0,0,0,0,-0.0414,-0.0461,-0.0522,-0.0586,-0.0635,-0.0663,-0.0673,-0.0673,-0.064,-0.054,-0.0515,-0.0367,-0.0176,-0.0098,0.0013,0.0019,0.007,0.0148,0.0038,0.0106,0.0093,0.0029,0,0,0,0,0,0,-0.0409,-0.0467,-0.0518,-0.0574,-0.0611,-0.0655,-0.0658,-0.0634,-0.0575,-0.0523,-0.0417,-0.0356,-0.0174,-0.0235,0.0012,0.0041,-0.0017,0.0235,0.0237,0.0113,0.0102,0.0092,0.0021,0,0,0,0,0]}]]